Tracking 19242 objects as of 19-Sep-2018
HD Live streaming from Space Station
objects crossing your sky now

FENGYUN 1C DEB

Track FENGYUN 1C DEB now!
10-day predictions


NORAD ID: 38793
Int'l Code: 1999-025EUH
Perigee: 680.3 km
Apogee: 839.4 km
Inclination: 98.7 °
Period: 99.9 minutes
Semi major axis: 7130 km
RCS: 0.0014 m2 (small)
Launch date: May 10, 1999
Source: People's Republic of China (PRC)
Launch site: Taiyaun Space Center, China (TSC)

Note: This is SATELLITE DEBRIS
aabbcc
Your satellite tracking list
Your tracking list is empty




NASA's NSSDC Master Catalog

Two Line Element Set (TLE):
1 38793U 99025EUH 18262.13628987  .00000742  00000-0  22530-3 0  9996
2 38793  98.7058 318.9153 0111503 353.5322  36.0183 14.41753737353748
Source of the keplerian elements: AFSPC